Joplin, MO

10:14 AM CST on November 18, 2019 (GMT -0600)
Joplin Regional

Weather History for KJLN - September, 2019

Change the Weather History Date:

Wednesday, September 25, 2019

  Actual Average Record
Temperature  
Mean Temperature 77 °F 67 °F  
Max Temperature 84 °F 78 °F 90 °F (1958)
Min Temperature 69 °F 55 °F 37 °F (1989)
Degree Days  
Heating Degree Days 0 3  
Month to date heating degree days 0 22  
Since 1 July heating degree days 0 23  
Cooling Degree Days 12 4  
Month to date cooling degree days 346 195  
Year to date cooling degree days 1597 1622  
Growing Degree Days 27 (Base 50)    
Moisture  
Dew Point 70 °F    
Average Humidity 84    
Maximum Humidity 97    
Minimum Humidity 61    
Precipitation  
Precipitation T in 0.17 in 3.18 in (1993)
Month to date precipitation 3.86 4.15  
Year to date precipitation 52.75 35.12  
Sea Level Pressure  
Sea Level Pressure 29.82 in    
Wind  
Wind Speed 6 mph ()    
Max Wind Speed 16 mph    
Max Gust Speed 22 mph    
Visibility 9.9 miles    
Events Thunderstorm    
T = Trace of Precipitation, MM = Missing Value Source: Averaged Metar Reports

Daily Weather History Graph

Daily Weather History Graph

Search for Another Location

Airport or City:

Astronomy

Sep. 25, 2019 Rise Set
Actual Time 7:08 AM CDT 7:10 PM CDT
Civil Twilight 6:42 AM CDT 7:36 PM CDT
Nautical Twilight 6:11 AM CDT 8:06 PM CDT
Astronomical Twilight 5:41 AM CDT 8:37 PM CDT
Moon 3:10 AM CDT (9/25) 5:36 PM CDT (9/25)
Length of Visible Light 12h 54m
Length of Day
12h 02m
Waning Crescent, 14% of the Moon is Illuminated
Sep 25
Waning Crescent
Sep 28
New
Oct 5
First Quarter
Oct 13
Full
Oct 21
Last Quarter

Hourly Weather History & Observations

Time (CDT) Temp. Heat Index Dew Point Humidity Pressure Visibility Wind Dir Wind Speed Gust Speed Precip Events Conditions
12:53 AM 70.0 °F - 68.0 °F 93% 29.78 in 10.0 mi South 15.0 mph - N/A   Clear
1:53 AM 70.0 °F - 68.0 °F 93% 29.78 in 10.0 mi South 11.5 mph - N/A   Clear
2:53 AM 70.0 °F - 66.9 °F 90% 29.79 in 10.0 mi South 6.9 mph - N/A   Clear
3:53 AM 70.0 °F - 68.0 °F 93% 29.78 in 10.0 mi South 4.6 mph - N/A   Scattered Clouds
4:53 AM 70.0 °F - 68.0 °F 93% 29.78 in 10.0 mi SSW 9.2 mph - N/A   Clear
5:53 AM 71.1 °F - 69.1 °F 93% 29.81 in 10.0 mi SW 4.6 mph - N/A   Mostly Cloudy
6:08 AM 70.0 °F - 69.1 °F 97% 29.84 in 10.0 mi Variable 4.6 mph - N/A   Mostly Cloudy
6:53 AM 71.1 °F - 69.1 °F 93% 29.81 in 10.0 mi SSW 6.9 mph - N/A   Overcast
7:23 AM 71.1 °F - 69.1 °F 93% 29.85 in 10.0 mi SW 6.9 mph - N/A   Scattered Clouds
7:53 AM 72.0 °F - 70.0 °F 93% 29.82 in 10.0 mi SSW 5.8 mph - N/A   Clear
8:53 AM 73.0 °F - 70.0 °F 90% 29.81 in 10.0 mi SSE 3.5 mph - N/A   Overcast
9:53 AM 73.0 °F - 71.1 °F 93% 29.85 in 10.0 mi SW 6.9 mph - N/A   Scattered Clouds
10:53 AM 75.9 °F - 71.1 °F 85% 29.86 in 10.0 mi SW 8.1 mph - N/A   Clear
11:53 AM 81.0 °F 84.9 °F 71.1 °F 72% 29.85 in 10.0 mi Variable 3.5 mph - N/A   Clear
12:53 PM 82.0 °F 85.9 °F 70.0 °F 67% 29.84 in 10.0 mi WSW 4.6 mph - N/A   Partly Cloudy
1:53 PM 82.0 °F 86.3 °F 71.1 °F 69% 29.81 in 10.0 mi Variable 3.5 mph - N/A   Scattered Clouds
2:53 PM 84.0 °F 89.6 °F 72.0 °F 67% 29.81 in 6.0 mi Calm Calm - N/A   Haze
3:53 PM 84.0 °F 88.4 °F 70.0 °F 63% 29.80 in 10.0 mi SSW 9.2 mph - N/A   Clear
4:53 PM 82.9 °F 87.5 °F 71.1 °F 67% 29.80 in 10.0 mi SSW 5.8 mph - N/A   Partly Cloudy
5:53 PM 84.0 °F 89.0 °F 71.1 °F 65% 29.79 in 10.0 mi Calm Calm - N/A   Clear
6:53 PM 82.0 °F 86.3 °F 71.1 °F 69% 29.81 in 10.0 mi Calm Calm - N/A   Scattered Clouds
7:53 PM 78.1 °F - 73.0 °F 84% 29.82 in 10.0 mi NNE 3.5 mph - N/A Thunderstorm Thunderstorm
8:23 PM 78.1 °F - 73.0 °F 84% 29.86 in 10.0 mi ENE 3.5 mph - N/A   Overcast
8:53 PM 77.0 °F - 73.0 °F 88% 29.85 in 10.0 mi ENE 3.5 mph - N/A   Mostly Cloudy
9:53 PM 75.9 °F - 72.0 °F 87% 29.83 in 10.0 mi NE 4.6 mph - 0.00 in Thunderstorm Scattered Clouds
10:53 PM 75.0 °F - 71.1 °F 87% 29.83 in 10.0 mi NNE 5.8 mph - N/A   Partly Cloudy
11:08 PM 75.0 °F - 71.1 °F 87% 29.86 in 10.0 mi NNE 6.9 mph - N/A Thunderstorm Mostly Cloudy
11:23 PM 75.0 °F - 71.1 °F 87% 29.88 in 10.0 mi East 5.8 mph - N/A   Mostly Cloudy
11:53 PM 75.0 °F - 71.1 °F 87% 29.87 in 10.0 mi South 9.2 mph - N/A   Overcast